Regional Weather Roundup
Issued by NWS

Home | Current Version | Previous Version | Graphics & Text | Print | Product List | Glossary On
Versions: 1 2 3 4 5 6 7 8 9 10 11 12 13 14 15 16 17 18 19 20 21 22 23 24 25 26 27 28
000
ASUS45 KCYS 181510
RWRWY

WYOMING REGIONAL WEATHER ROUNDUP
NATIONAL WEATHER SERVICE CHEYENNE WY
900 AM MDT FRI APR 18 2014

NOTE:  "FAIR" INDICATES FEW OR NO CLOUDS BELOW 12,000 FEET
WITH NO SIGNIFICANT WEATHER AND/OR OBSTRUCTIONS TO VISIBILITY.

WYZ001-181600-
YELLOWSTONE NATIONAL PARK

CITY           SKY/WX    TMP DP  RH WIND       PRES   REMARKS
LK YELLOWSTONE   N/A     32  32 100 CALM      29.89F
W YELLOWSTONE  NOT AVBL

$$
WYZ002>013-054>058-071-098>099-181600-
NORTHERN WYOMING

CITY           SKY/WX    TMP DP  RH WIND       PRES   REMARKS
JACKSON        PTSUNNY   37  34  87 W6        29.89R WCI  33
CODY           MOSUNNY   52  37  58 CALM      29.74F
GREYBULL       CLOUDY    49  36  61 NW3       29.72F
WORLAND        CLOUDY    55  32  41 S18       29.71F
SHERIDAN       PTSUNNY   49  38  65 NE9       29.70S
BUFFALO        PTSUNNY   55  27  34 S12       29.73F
GILLETTE       CLOUDY    50  32  50 S21       29.75F
HULETT         FAIR      55  32  41 S9        29.78
NEWCASTLE      FAIR      52  32  46 SE14      29.85

$$
WYZ014>020-022>026-101>103-181600-
CENTRAL WYOMING

CITY           SKY/WX    TMP DP  RH WIND       PRES   REMARKS
BIG PINEY      PTSUNNY   38  25  59 SE3       29.94S
PINEDALE       CLOUDY    39  30  70 CALM      29.95S
DUBOIS         FAIR      45  23  42 NW15G22   29.83F
LANDER         CLOUDY    48  28  46 CALM      29.79F
RIVERTON       PTSUNNY   46  25  43 W3        29.80F
CASPER         CLOUDY    56  28  34 SW25G36   29.83F
DOUGLAS        CLOUDY    57  31  37 W9        29.87F

$$
WYZ021-027>030-104>119-181600-
SOUTHERN WYOMING

CITY           SKY/WX    TMP DP  RH WIND       PRES   REMARKS
EVANSTON       PTSUNNY   58  22  24 SW24G30   29.94S
KEMMERER       CLOUDY    52  23  32 SW9G16    29.95S
FORT BRIDGER   FAIR      56  24  29 W6        29.98R
ROCK SPRINGS   CLOUDY    57  22  25 S15       29.94S
DIXON          FAIR      53  32  44 SE5       30.06S
RAWLINS        CLOUDY    54  23  30 S25G32    29.97S
SARATOGA       FAIR      52  27  37 SE15      30.03S
LARAMIE        CLOUDY    52  23  32 S14G25    30.05S
CHEYENNE       PTSUNNY   55  33  43 S9        29.99S
TORRINGTON     PTSUNNY   50  38  63 SE7       29.89F
PINE BLUFFS    FAIR      52  39  62 S13       29.97F

$$



USA.gov is the U.S. government's official web portal to all federal, state and local government web resources and services.